[[{"header":{"parameterUnit":"m.s-1","parameterCategory":1,"la1":30.2991,"la2":30.254,"lo1":-89.0895,"lo2":-89.0444,"dy":0.0017,"dx":0.0017,"nx":28,"ny":28,"refTime":"2024-04-11T09:00:00:Z","depth":0,"parameterNumber":2,"parameterNumberName":"U-component_of_WINDS"},"data":[0,0,0,0,0,0,0,0,0,0,0,0,0,0,0,0,0,0,0,0,0,0,0,0,0,0,0,0,0,0,0,0,0,0,0,0,0,0,0,0,0,0,0,0,0,0,0,0,0,0,0,0,0,0,0,0,0,0,3.7045,3.7047,0,3.7159,3.716,3.7161,3.7122,3.7119,3.7117,3.7114,3.7234,3.7239,3.7244,0,0,0,0,0,0,0,0,0,0,0,0,0,3.6799,3.6804,3.7045,3.7047,3.7048,3.7158,3.716,3.7162,3.7122,3.7119,3.7116,3.7113,3.7232,3.7238,3.7245,0,0,0,0,0,0,0,0,0,0,0,0,0,3.6909,3.6805,3.7045,3.7042,3.7043,3.7158,3.716,3.7162,3.7123,3.7119,3.7115,3.7112,3.723,3.7238,3.7246,3.7372,0,0,3.7271,3.7275,0,0,0,0,0,0,0,0,3.6903,3.6918,3.7041,3.7042,3.7043,3.7122,3.7117,3.7233,3.7124,3.7093,3.7114,3.711,3.72,3.721,3.724,3.7378,3.7383,3.7272,3.7277,3.728,3.7283,0,0,0,0,0,0,0,3.6895,3.6913,3.709,3.7043,3.7044,3.7036,3.7047,3.7139,3.7166,3.7095,3.7092,3.7106,3.72,3.7232,3.7242,3.7385,3.7272,3.7279,3.7284,3.7287,3.7634,3.7638,0,0,0,0,0,0,3.6886,3.6907,3.7087,3.7094,3.6962,3.7043,3.7056,3.7101,3.7165,3.7171,3.7109,3.7104,3.722,3.7233,3.7246,3.74,3.728,3.7288,3.7293,3.763,3.7635,3.764,0,0,0,0,0,0,3.6881,3.6903,3.7082,3.7,3.7022,3.7052,3.7102,3.7105,3.7137,3.7176,3.7181,3.7137,3.7217,3.7235,3.7342,3.7403,3.7292,3.7299,3.7625,3.7632,3.7638,3.7707,0,0,0,0,0,0,3.6874,3.6901,3.6948,3.7001,3.7026,3.7174,3.7106,3.711,3.7151,3.7145,3.7203,3.7209,3.7216,3.7329,3.735,3.7413,3.7306,3.762,3.7628,3.7636,3.77,3.7715,3.7729,0,0,0,0,0,3.6866,3.6964,3.6951,3.6973,3.7086,3.7178,3.7192,3.7197,3.7156,3.7205,3.723,3.7207,3.7393,3.7341,3.7363,3.743,3.7616,3.7626,3.7635,3.7693,3.7712,3.7728,0,0,0,0,0,0,3.6919,3.6971,3.6957,3.7075,3.7122,3.7171,3.7232,3.7217,3.7278,3.727,3.7274,3.7288,3.7398,3.7424,3.7365,3.7557,3.7499,3.7513,3.7535,3.7554,3.7568,3.7559,3.7313,0,0,0,0,0,3.6944,3.7013,3.7055,3.7155,3.718,3.7202,3.7242,3.7242,3.7292,3.7312,3.7344,3.7395,3.7464,3.751,3.7577,3.7703,3.7716,3.776,3.7775,3.7786,3.7799,3.787,3.789,3.7671,3.7671,3.7671,0,0,3.6997,3.7034,3.7078,3.7167,3.7203,3.7276,3.7219,3.7298,3.7353,3.7324,3.7427,3.7453,3.7509,3.7627,3.768,3.7652,3.7863,3.7799,3.7808,3.7814,3.7882,3.7902,3.7921,3.7678,3.7677,3.7676,0,0,3.7131,3.7166,3.7253,3.7291,3.7347,3.7362,3.7383,3.7435,3.7451,3.7554,3.7534,3.76,3.7719,3.7761,3.7798,3.7949,3.7931,3.7971,3.8047,3.8116,3.8133,3.8148,3.8204,3.8223,3.7983,3.7984,3.7984,0,3.7191,3.7299,3.7301,3.7382,3.7423,3.7399,3.7489,3.7526,3.7602,3.7631,3.7598,3.7749,3.7785,3.7913,3.795,3.798,3.8006,3.7964,3.813,3.8145,3.816,3.8213,3.8233,3.7988,3.7988,3.7987,3.7987,0,3.737,3.7445,3.7509,3.7582,3.763,3.7715,3.7732,3.778,3.7776,3.7795,3.7901,3.7944,3.8019,3.8049,3.8046,3.8177,3.8158,3.8128,3.807,3.8185,3.8235,3.8255,3.7995,3.7993,3.7992,3.799,0,0,3.754,3.7613,3.7637,3.767,3.7731,3.779,3.7875,3.7948,3.799,3.8043,3.8116,3.8218,3.8191,3.8233,3.8235,3.8295,3.8414,3.8257,3.8259,3.8286,3.8563,3.8585,3.8609,3.8402,3.8406,3.8409,3.8558,0,3.768,3.7828,3.7833,3.7969,3.8039,3.8019,3.8093,3.8139,3.8159,3.8223,3.8245,3.8319,3.8276,3.8302,3.836,3.8387,3.847,3.8376,3.8471,3.8474,3.8458,3.8634,3.8659,3.8797,3.8578,3.8581,3.8583,0,3.7863,3.7921,3.8064,3.8116,3.8145,3.8212,3.828,3.8341,3.8393,3.8404,3.8451,3.8444,3.8533,3.8472,3.8595,3.8532,3.8571,3.859,3.8596,3.8605,3.8536,3.865,3.8841,3.8862,3.8614,3.8611,3.8609,0,3.7974,3.8089,3.8189,3.8218,3.8281,3.8328,3.8357,3.8405,3.8449,3.8509,3.8538,3.8608,3.8647,3.8702,3.8715,3.8669,3.8839,3.8778,3.8851,3.8851,3.8888,3.8885,3.9089,3.8912,3.8912,3.8911,3.8911,0,3.813,3.8219,3.824,3.8302,3.8401,3.8407,3.8505,3.853,3.8574,3.8642,3.8629,3.8693,3.8706,3.8773,3.8784,3.8885,3.8903,3.8915,3.8917,3.8916,3.8915,3.8942,3.8933,3.8917,3.8916,3.8915,3.8914,0,3.8271,3.8289,3.8397,3.8448,3.8463,3.8534,3.8577,3.8638,3.8656,3.8742,3.8763,3.8793,3.8871,3.889,3.8983,3.8991,3.9111,3.9103,3.9093,3.9093,3.9165,3.9158,3.9394,3.9426,3.9227,3.9229,3.9231,0,3.837,3.8437,3.8495,3.8539,3.857,3.8641,3.8685,3.8694,3.8742,3.8808,3.8861,3.8937,3.8999,3.9127,3.9158,3.923,3.9224,3.9302,3.9235,3.9233,3.9227,3.9223,3.923,3.9315,3.9317,3.9319,3.932,0,3.8544,3.8549,3.8613,3.8682,3.8735,3.879,3.8842,3.8879,3.8895,3.8949,3.9029,3.9077,3.9173,3.925,3.9323,3.9354,3.9341,3.9341,3.9362,3.9362,3.9354,3.936,3.9129,3.9335,3.9334,3.9333,3.9332,3.9331,3.8667,3.8727,3.8777,3.885,3.8889,3.8939,3.8998,3.9024,3.909,3.9168,3.917,3.9257,3.931,3.9406,3.9442,3.9511,3.9488,3.9518,3.9525,3.9533,3.954,3.9342,3.9525,3.9524,3.9524,3.9523,3.9523,0,3.8841,3.8872,3.8939,3.9012,3.907,3.9051,3.9108,3.9158,3.9234,3.9284,3.9345,3.9438,3.9513,3.9551,3.9625,3.9674,3.967,3.9694,3.9691,3.9698,3.9556,3.9531,3.9696,3.9696,3.9696,3.9696,3.9696,3.9696,3.8938,3.9038,3.905,3.917,3.9202,3.9286,3.9321,3.9367,3.9406,3.951,3.9572,3.9595,3.9641,3.9719,3.9788,3.9797,3.9826,3.9853,3.9859,3.9726,3.9708,3.9691,3.9668,3.9859,3.9859,3.9995,3.9997,3.9998]},{"header":{"parameterUnit":"m.s-1","parameterCategory":1,"la1":30.2991,"la2":30.254,"lo1":-89.0895,"lo2":-89.0444,"dy":0.0017,"dx":0.0017,"nx":28,"ny":28,"refTime":"2024-04-11T09:00:00:Z","depth":0,"parameterNumber":3,"parameterNumberName":"V-component_of_WINDS"},"data":[0,0,0,0,0,0,0,0,0,0,0,0,0,0,0,0,0,0,0,0,0,0,0,0,0,0,0,0,0,0,0,0,0,0,0,0,0,0,0,0,0,0,0,0,0,0,0,0,0,0,0,0,0,0,0,0,0,0,-3.0263,-3.0265,0,-3.0392,-3.0393,-3.0395,-3.0379,-3.0377,-3.0375,-3.0373,-3.0509,-3.0514,-3.052,0,0,0,0,0,0,0,0,0,0,0,0,0,-3.0009,-3.0013,-3.0263,-3.0265,-3.0266,-3.0392,-3.0394,-3.0395,-3.038,-3.0377,-3.0375,-3.0372,-3.0507,-3.0514,-3.0521,0,0,0,0,0,0,0,0,0,0,0,0,0,-3.0127,-3.0015,-3.0263,-3.0274,-3.0276,-3.0391,-3.0394,-3.0396,-3.038,-3.0377,-3.0374,-3.0371,-3.0505,-3.0513,-3.0521,-3.0636,0,0,-3.0547,-3.0551,0,0,0,0,0,0,0,0,-3.012,-3.0136,-3.0271,-3.0273,-3.0276,-3.0366,-3.0354,-3.0476,-3.0381,-3.0341,-3.0373,-3.037,-3.0464,-3.0476,-3.0507,-3.0642,-3.0648,-3.0548,-3.0553,-3.0556,-3.0559,0,0,0,0,0,0,0,-3.0112,-3.013,-3.0314,-3.0273,-3.0276,-3.0274,-3.0287,-3.0377,-3.0419,-3.0344,-3.0343,-3.0359,-3.0465,-3.0499,-3.051,-3.065,-3.0547,-3.0555,-3.056,-3.0563,-3.0887,-3.089,0,0,0,0,0,0,-3.01,-3.0124,-3.031,-3.0318,-3.0188,-3.0281,-3.0296,-3.0341,-3.0418,-3.0426,-3.0361,-3.0357,-3.0486,-3.05,-3.0515,-3.0655,-3.0556,-3.0564,-3.0569,-3.0883,-3.0888,-3.0891,0,0,0,0,0,0,-3.0095,-3.0117,-3.0305,-3.0221,-3.0244,-3.0288,-3.0339,-3.0345,-3.0378,-3.043,-3.0438,-3.0388,-3.0484,-3.0503,-3.0606,-3.0659,-3.0568,-3.0575,-3.0879,-3.0885,-3.0889,-3.0934,0,0,0,0,0,0,-3.0088,-3.0115,-3.0158,-3.0222,-3.0249,-3.0393,-3.0342,-3.035,-3.0392,-3.0389,-3.0457,-3.0466,-3.0483,-3.0593,-3.0614,-3.0669,-3.0582,-3.0874,-3.0881,-3.0888,-3.0928,-3.0941,-3.0951,0,0,0,0,0,-3.0079,-3.0166,-3.016,-3.0183,-3.0303,-3.0396,-3.0411,-3.0429,-3.0397,-3.0441,-3.0475,-3.0464,-3.065,-3.0604,-3.0627,-3.0685,-3.0871,-3.0879,-3.0887,-3.0923,-3.0938,-3.0951,0,0,0,0,0,0,-3.0108,-3.0174,-3.0169,-3.0279,-3.0332,-3.0393,-3.0449,-3.0444,-3.0508,-3.0502,-3.0522,-3.0537,-3.0641,-3.0674,-3.0622,-3.0801,-3.0756,-3.0769,-3.0776,-3.0791,-3.0802,-3.0792,-3.0589,0,0,0,0,0,-3.0127,-3.0196,-3.025,-3.0343,-3.0369,-3.0405,-3.0446,-3.0454,-3.051,-3.0533,-3.0574,-3.063,-3.0701,-3.0747,-3.0816,-3.0933,-3.0949,-3.0985,-3.0996,-3.1005,-3.1016,-3.1082,-3.1099,-3.0918,-3.0918,-3.0918,0,0,-3.0168,-3.0213,-3.0255,-3.035,-3.0391,-3.0463,-3.0423,-3.0501,-3.0555,-3.0545,-3.0644,-3.0677,-3.074,-3.0851,-3.0902,-3.0881,-3.107,-3.1015,-3.1022,-3.1029,-3.1092,-3.1109,-3.1125,-3.0923,-3.0922,-3.0922,0,0,-3.0279,-3.0319,-3.0401,-3.0444,-3.0507,-3.053,-3.055,-3.0612,-3.0633,-3.0732,-3.0727,-3.0792,-3.0914,-3.096,-3.1,-3.1129,-3.1122,-3.1151,-3.1211,-3.1275,-3.1289,-3.1302,-3.1349,-3.1366,-3.1162,-3.1162,-3.1162,0,-3.0322,-3.0429,-3.0444,-3.0522,-3.0565,-3.0558,-3.0642,-3.0683,-3.0767,-3.0797,-3.0772,-3.0926,-3.0968,-3.109,-3.1122,-3.1153,-3.1178,-3.1143,-3.1285,-3.1298,-3.1311,-3.1356,-3.1374,-3.1165,-3.1165,-3.1165,-3.1164,0,-3.0479,-3.0553,-3.0612,-3.0691,-3.074,-3.0821,-3.085,-3.0898,-3.0903,-3.093,-3.1032,-3.1083,-3.1162,-3.1192,-3.1197,-3.1315,-3.1301,-3.1281,-3.1236,-3.1331,-3.1374,-3.1391,-3.117,-3.1169,-3.1168,-3.1167,0,0,-3.0612,-3.0699,-3.0721,-3.0757,-3.0827,-3.0885,-3.0967,-3.1043,-3.1084,-3.1142,-3.1212,-3.1316,-3.1298,-3.1343,-3.1354,-3.141,-3.1511,-3.1383,-3.1385,-3.1406,-3.1645,-3.1661,-3.168,-3.1506,-3.151,-3.1512,-3.164,0,-3.0731,-3.0873,-3.0889,-3.1016,-3.1086,-3.1081,-3.1152,-3.1204,-3.1231,-3.1295,-3.1326,-3.1399,-3.1369,-3.1397,-3.1452,-3.1487,-3.1559,-3.1478,-3.1573,-3.1576,-3.1558,-3.1703,-3.1719,-3.1837,-3.1657,-3.166,-3.1662,0,-3.0888,-3.0949,-3.1083,-3.1144,-3.1174,-3.1237,-3.1309,-3.137,-3.1429,-3.1445,-3.1495,-3.1499,-3.1585,-3.1537,-3.1657,-3.1601,-3.1641,-3.1665,-3.167,-3.168,-3.1625,-3.1718,-3.1875,-3.1893,-3.1689,-3.1687,-3.1685,0,-3.0973,-3.1089,-3.1184,-3.1215,-3.1289,-3.1334,-3.1367,-3.1423,-3.1468,-3.1531,-3.1561,-3.1634,-3.1674,-3.1731,-3.1756,-3.1719,-3.1875,-3.1829,-3.1892,-3.1891,-3.1925,-3.1923,-3.2092,-3.195,-3.195,-3.1949,-3.1949,0,-3.1104,-3.1186,-3.1223,-3.1282,-3.1375,-3.1394,-3.1486,-3.1517,-3.1567,-3.1633,-3.1634,-3.1696,-3.1725,-3.1792,-3.1812,-3.1909,-3.1927,-3.1943,-3.1948,-3.1944,-3.1942,-3.1971,-3.1964,-3.1954,-3.1953,-3.1952,-3.1951,0,-3.1214,-3.1242,-3.1346,-3.1407,-3.1424,-3.149,-3.1543,-3.1601,-3.1627,-3.1711,-3.1732,-3.1774,-3.1854,-3.1884,-3.1981,-3.1994,-3.2107,-3.2104,-3.2086,-3.2088,-3.215,-3.2144,-3.2344,-3.2372,-3.2211,-3.2212,-3.2213,0,-3.1296,-3.1359,-3.1427,-3.147,-3.1505,-3.1575,-3.1621,-3.1643,-3.1691,-3.1764,-3.1813,-3.1892,-3.1956,-3.2084,-3.2124,-3.2199,-3.2199,-3.2264,-3.221,-3.2205,-3.2201,-3.2198,-3.2205,-3.2274,-3.2276,-3.2277,-3.2278,0,-3.1439,-3.145,-3.1515,-3.1586,-3.164,-3.1697,-3.1753,-3.1789,-3.182,-3.1874,-3.1954,-3.2004,-3.2103,-3.2182,-3.2259,-3.2295,-3.2293,-3.2295,-3.2314,-3.231,-3.2298,-3.2307,-3.2115,-3.229,-3.2289,-3.2288,-3.2287,-3.2287,-3.1539,-3.1595,-3.1651,-3.1724,-3.1768,-3.182,-3.1878,-3.1911,-3.1978,-3.206,-3.2069,-3.2156,-3.2215,-3.2318,-3.2358,-3.2427,-3.241,-3.2437,-3.2444,-3.2451,-3.2456,-3.2286,-3.2441,-3.2441,-3.2441,-3.2441,-3.244,0,-3.1682,-3.1718,-3.1785,-3.1862,-3.1921,-3.1911,-3.1973,-3.2023,-3.2099,-3.2153,-3.2216,-3.231,-3.2387,-3.2433,-3.2511,-3.2558,-3.2559,-3.2578,-3.2575,-3.2584,-3.2466,-3.2442,-3.2576,-3.2576,-3.2576,-3.2576,-3.2576,-3.2576,-3.1764,-3.1859,-3.1877,-3.1994,-3.203,-3.2114,-3.215,-3.2199,-3.2243,-3.2347,-3.241,-3.2439,-3.2492,-3.2573,-3.2644,-3.2656,-3.2685,-3.2706,-3.2716,-3.2606,-3.2592,-3.2578,-3.2556,-3.2712,-3.2712,-3.2828,-3.2829,-3.283]}]]